N7JB KALB-KOQU

Flight info

Callsign N7JB
Flight time N/A
Altitude
Route
Aircraft C172/L-DOV/C

Departure

Time 2026-05-05 23:21
Airport Albany International Airport (KALB)

Arrival

Time N/A
Airport Quonset State Airport (KOQU)
Time Latitude Longitude Altitude Speed Heading
2026-05-05 23:11 42.75091 -73.81028 284 ft 0 kts 177°
2026-05-05 23:13 42.75086 -73.81023 285 ft 4 kts 113°
2026-05-05 23:13 42.75100 -73.81010 284 ft 2 kts 320°
2026-05-05 23:13 42.75114 -73.80946 283 ft 11 kts 97°
2026-05-05 23:14 42.75087 -73.80882 283 ft 0 kts 162°
2026-05-05 23:14 42.75086 -73.80882 283 ft 2 kts 171°
2026-05-05 23:14 42.75057 -73.80879 285 ft 0 kts 172°
2026-05-05 23:15 42.75037 -73.80846 284 ft 12 kts 103°
2026-05-05 23:15 42.75039 -73.80674 280 ft 17 kts 89°
2026-05-05 23:16 42.74961 -73.80630 281 ft 12 kts 175°
2026-05-05 23:16 42.74894 -73.80626 283 ft 8 kts 179°
2026-05-05 23:16 42.74852 -73.80621 284 ft 5 kts 163°
2026-05-05 23:16 42.74825 -73.80591 284 ft 5 kts 113°
2026-05-05 23:17 42.74823 -73.80501 283 ft 15 kts 88°
2026-05-05 23:17 42.74826 -73.80324 284 ft 22 kts 89°
2026-05-05 23:17 42.74832 -73.80078 283 ft 30 kts 88°
2026-05-05 23:17 42.74839 -73.79760 285 ft 36 kts 88°
2026-05-05 23:18 42.74848 -73.79399 283 ft 39 kts 88°
2026-05-05 23:18 42.74857 -73.79055 282 ft 35 kts 88°
2026-05-05 23:18 42.74864 -73.78750 284 ft 29 kts 89°
2026-05-05 23:18 42.74890 -73.78549 280 ft 11 kts 34°
2026-05-05 23:19 42.74903 -73.78544 280 ft 0 kts
2026-05-05 23:19 42.74947 -73.78548 280 ft 13 kts 348°
2026-05-05 23:19 42.74975 -73.78648 279 ft 4 kts 250°
2026-05-05 23:20 42.74973 -73.78670 279 ft 15 kts 267°
2026-05-05 23:20 42.74968 -73.79051 284 ft 62 kts 268°
2026-05-05 23:20 42.74954 -73.79742 406 ft 78 kts 268°
2026-05-05 23:20 42.74927 -73.80491 610 ft 79 kts 267°
2026-05-05 23:21 42.74775 -73.81210 814 ft 84 kts 231°
2026-05-05 23:21 42.74244 -73.81395 1025 ft 91 kts 175°
2026-05-05 23:21 42.73736 -73.80884 1259 ft 94 kts 145°
2026-05-05 23:21 42.73229 -73.80218 1315 ft 104 kts 144°
2026-05-05 23:22 42.72697 -73.79546 1464 ft 104 kts 145°
2026-05-05 23:22 42.72166 -73.78871 1590 ft 106 kts 147°
2026-05-05 23:22 42.71630 -73.78149 1736 ft 109 kts 146°
2026-05-05 23:22 42.71095 -73.77416 1914 ft 109 kts 145°
2026-05-05 23:23 42.70570 -73.76670 2060 ft 112 kts 136°
2026-05-05 23:23 42.70239 -73.75686 2228 ft 114 kts 123°
2026-05-05 23:23 42.69924 -73.74693 2363 ft 115 kts 122°
2026-05-05 23:23 42.69616 -73.73687 2510 ft 115 kts 122°
2026-05-05 23:24 42.69317 -73.72675 2646 ft 115 kts 122°
2026-05-05 23:24 42.69020 -73.71661 2796 ft 116 kts 122°
2026-05-05 23:24 42.68721 -73.70640 2944 ft 117 kts 122°
2026-05-05 23:24 42.68406 -73.69587 3005 ft 126 kts 122°
2026-05-05 23:25 42.68053 -73.68462 3006 ft 135 kts 122°
2026-05-05 23:25 42.67672 -73.67272 3006 ft 139 kts 122°
2026-05-05 23:25 42.67280 -73.66060 3008 ft 141 kts 122°
2026-05-05 23:25 42.66889 -73.64838 2988 ft 140 kts 123°
2026-05-05 23:26 42.66513 -73.63632 2984 ft 136 kts 124°
2026-05-05 23:26 42.66142 -73.62458 2987 ft 135 kts 124°
2026-05-05 23:26 42.65781 -73.61286 2987 ft 133 kts 124°
2026-05-05 23:26 42.65411 -73.60126 2990 ft 135 kts 124°
2026-05-05 23:27 42.65042 -73.58964 2991 ft 133 kts 126°
2026-05-05 23:27 42.64630 -73.57844 2993 ft 133 kts 128°
2026-05-05 23:27 42.64212 -73.56723 2993 ft 133 kts 128°
2026-05-05 23:27 42.63800 -73.55615 2988 ft 132 kts 128°
2026-05-05 23:28 42.63373 -73.54495 2976 ft 131 kts 130°
2026-05-05 23:28 42.62949 -73.53405 2975 ft 130 kts 130°
2026-05-05 23:28 42.62531 -73.52326 2978 ft 132 kts 130°
2026-05-05 23:28 42.62097 -73.51211 2982 ft 134 kts 130°
2026-05-05 23:29 42.61660 -73.50096 2990 ft 132 kts 130°
2026-05-05 23:29 42.61226 -73.48990 2992 ft 134 kts 130°
2026-05-05 23:29 42.60775 -73.47897 2994 ft 131 kts 132°
2026-05-05 23:29 42.60319 -73.46811 2998 ft 134 kts 132°
2026-05-05 23:30 42.59853 -73.45721 3004 ft 133 kts 132°
2026-05-05 23:30 42.59398 -73.44631 3005 ft 132 kts 133°
2026-05-05 23:30 42.58940 -73.43555 3028 ft 130 kts 132°
2026-05-05 23:30 42.58503 -73.42492 3042 ft 125 kts 132°
2026-05-05 23:31 42.58080 -73.41480 3137 ft 122 kts 131°
2026-05-05 23:31 42.57690 -73.40493 3288 ft 115 kts 133°
2026-05-05 23:31 42.57312 -73.39519 3419 ft 116 kts 131°
2026-05-05 23:31 42.56952 -73.38563 3509 ft 113 kts 134°
2026-05-05 23:32 42.56562 -73.37596 3522 ft 122 kts 131°
2026-05-05 23:32 42.56155 -73.36576 3532 ft 125 kts 132°
2026-05-05 23:32 42.55726 -73.35526 3523 ft 128 kts 132°
2026-05-05 23:32 42.55281 -73.34461 3533 ft 133 kts 133°
2026-05-05 23:33 42.54820 -73.33360 3522 ft 134 kts 132°
2026-05-05 23:33 42.54356 -73.32254 3524 ft 136 kts 131°
2026-05-05 23:33 42.53891 -73.31157 3531 ft 133 kts 132°
2026-05-05 23:33 42.53435 -73.30068 3530 ft 133 kts 132°
2026-05-05 23:34 42.52976 -73.28963 3515 ft 133 kts 131°
2026-05-05 23:34 42.52544 -73.27904 3531 ft 127 kts 133°
2026-05-05 23:34 42.52118 -73.26866 3540 ft 129 kts 133°
2026-05-05 23:34 42.51688 -73.25788 3545 ft 130 kts 131°
2026-05-05 23:35 42.51237 -73.24703 3540 ft 133 kts 131°
2026-05-05 23:35 42.50791 -73.23612 3538 ft 131 kts 132°
2026-05-05 23:35 42.50346 -73.22529 3534 ft 132 kts 132°
2026-05-05 23:35 42.49899 -73.21444 3525 ft 129 kts 132°
2026-05-05 23:36 42.49465 -73.20374 3528 ft 129 kts 133°
2026-05-05 23:36 42.48999 -73.19336 3538 ft 129 kts 135°
2026-05-05 23:36 42.48531 -73.18294 3528 ft 129 kts 135°
2026-05-05 23:36 42.48065 -73.17270 3535 ft 130 kts 135°
2026-05-05 23:37 42.47593 -73.16229 3535 ft 129 kts 135°
2026-05-05 23:37 42.47119 -73.15190 3531 ft 129 kts 135°
2026-05-05 23:37 42.46598 -73.14224 3523 ft 124 kts 144°
2026-05-05 23:37 42.46041 -73.13330 3522 ft 123 kts 144°
2026-05-05 23:38 42.45485 -73.12431 3457 ft 127 kts 144°
2026-05-05 23:38 42.44913 -73.11518 3446 ft 125 kts 144°
2026-05-05 23:38 42.44358 -73.10633 3450 ft 125 kts 144°
2026-05-05 23:38 42.43799 -73.09735 3449 ft 125 kts 144°
2026-05-05 23:39 42.43236 -73.08829 3473 ft 126 kts 144°
2026-05-05 23:39 42.42673 -73.07921 3474 ft 126 kts 144°
2026-05-05 23:39 42.42091 -73.07043 3469 ft 124 kts 150°
2026-05-05 23:39 42.41480 -73.06212 3470 ft 125 kts 150°
2026-05-05 23:40 42.40872 -73.05368 3476 ft 124 kts 148°
2026-05-05 23:40 42.40255 -73.04570 3471 ft 124 kts 149°
2026-05-05 23:40 42.39742 -73.03548 3463 ft 134 kts 135°
2026-05-05 23:40 42.39357 -73.02381 3459 ft 137 kts 122°
2026-05-05 23:41 42.39052 -73.01162 3462 ft 136 kts 121°
2026-05-05 23:41 42.38751 -72.99944 3450 ft 137 kts 122°
2026-05-05 23:41 42.38476 -72.98751 3469 ft 133 kts 120°
2026-05-05 23:41 42.38177 -72.97547 3477 ft 135 kts 121°
2026-05-05 23:42 42.37845 -72.96317 3476 ft 144 kts 122°
2026-05-05 23:42 42.37509 -72.95045 3472 ft 142 kts 122°
2026-05-05 23:42 42.37184 -72.93827 3476 ft 134 kts 122°
2026-05-05 23:42 42.36880 -72.92653 3472 ft 130 kts 122°
2026-05-05 23:43 42.36583 -72.91509 3478 ft 128 kts 122°
2026-05-05 23:43 42.36293 -72.90400 3480 ft 128 kts 123°
2026-05-05 23:43 42.35992 -72.89251 3488 ft 130 kts 122°
2026-05-05 23:43 42.35682 -72.88088 3487 ft 133 kts 122°
2026-05-05 23:44 42.35368 -72.86911 3479 ft 131 kts 121°
2026-05-05 23:44 42.35064 -72.85790 3479 ft 125 kts 122°
2026-05-05 23:44 42.34764 -72.84650 3486 ft 132 kts 122°
2026-05-05 23:44 42.34454 -72.83478 3500 ft 133 kts 122°
2026-05-05 23:45 42.34130 -72.82283 3489 ft 135 kts 122°
2026-05-05 23:45 42.33815 -72.81100 3498 ft 135 kts 122°
2026-05-05 23:45 42.33498 -72.79914 3489 ft 132 kts 122°
2026-05-05 23:45 42.33200 -72.78756 3492 ft 128 kts 122°
2026-05-05 23:46 42.32908 -72.77616 3506 ft 130 kts 122°
2026-05-05 23:46 42.32611 -72.76429 3493 ft 134 kts 121°
2026-05-05 23:46 42.32313 -72.75252 3496 ft 132 kts 122°
2026-05-05 23:46 42.32012 -72.74071 3500 ft 134 kts 122°
2026-05-05 23:47 42.31700 -72.72868 3497 ft 135 kts 121°
2026-05-05 23:47 42.31385 -72.71670 3494 ft 134 kts 122°
2026-05-05 23:47 42.31067 -72.70505 3495 ft 134 kts 122°
2026-05-05 23:47 42.30743 -72.69322 3483 ft 134 kts 123°
2026-05-05 23:48 42.30450 -72.68117 3498 ft 136 kts 122°
2026-05-05 23:48 42.30167 -72.66888 3496 ft 137 kts 122°
2026-05-05 23:48 42.29885 -72.65660 3489 ft 136 kts 121°
2026-05-05 23:48 42.29609 -72.64453 3490 ft 134 kts 123°
2026-05-05 23:49 42.29285 -72.63284 3492 ft 133 kts 126°
2026-05-05 23:49 42.28953 -72.62119 3493 ft 133 kts 126°
2026-05-05 23:49 42.28612 -72.60959 3490 ft 133 kts 126°
2026-05-05 23:49 42.28268 -72.59781 3490 ft 137 kts 127°
2026-05-05 23:50 42.27938 -72.58566 3492 ft 138 kts 126°
2026-05-05 23:50 42.27600 -72.57349 3501 ft 139 kts 126°
2026-05-05 23:50 42.27259 -72.56117 3496 ft 139 kts 126°
2026-05-05 23:50 42.26917 -72.54907 3498 ft 140 kts 126°
2026-05-05 23:51 42.26573 -72.53683 3501 ft 139 kts 126°
2026-05-05 23:51 42.26228 -72.52451 3498 ft 140 kts 126°
2026-05-05 23:51 42.25882 -72.51216 3495 ft 142 kts 125°
2026-05-05 23:51 42.25532 -72.49973 3498 ft 141 kts 126°
2026-05-05 23:52 42.25185 -72.48736 3497 ft 140 kts 126°
2026-05-05 23:52 42.24841 -72.47502 3498 ft 141 kts 126°
2026-05-05 23:52 42.24492 -72.46263 3504 ft 141 kts 126°
2026-05-05 23:52 42.24147 -72.45009 3499 ft 143 kts 125°
2026-05-05 23:53 42.23806 -72.43755 3492 ft 142 kts 126°
2026-05-05 23:53 42.23471 -72.42515 3497 ft 140 kts 126°
2026-05-05 23:53 42.23139 -72.41270 3498 ft 141 kts 126°
2026-05-05 23:53 42.22813 -72.40045 3497 ft 140 kts 126°
2026-05-05 23:54 42.22589 -72.39207 3500 ft 141 kts 126°
2026-05-05 23:54 42.22146 -72.37562 3500 ft 141 kts 126°
2026-05-05 23:54 42.21811 -72.36321 3503 ft 140 kts 126°
2026-05-05 23:54 42.21476 -72.35084 3502 ft 141 kts 126°
2026-05-05 23:55 42.21251 -72.34265 3511 ft 141 kts 127°
2026-05-05 23:55 42.20910 -72.33015 3506 ft 142 kts 126°
2026-05-05 23:55 42.20565 -72.31760 3506 ft 142 kts 126°
2026-05-05 23:55 42.20224 -72.30516 3508 ft 141 kts 126°
2026-05-05 23:56 42.19879 -72.29259 3511 ft 144 kts 126°
2026-05-05 23:56 42.19532 -72.27990 3517 ft 143 kts 127°
2026-05-05 23:56 42.19183 -72.26716 3507 ft 145 kts 126°
2026-05-05 23:56 42.18838 -72.25448 3507 ft 144 kts 126°
2026-05-05 23:57 42.18489 -72.24171 3528 ft 145 kts 124°
2026-05-05 23:57 42.18134 -72.22913 3533 ft 143 kts 127°
2026-05-05 23:57 42.17694 -72.21758 3534 ft 137 kts 136°
2026-05-05 23:57 42.17226 -72.20645 3531 ft 136 kts 137°
2026-05-05 23:58 42.16756 -72.19534 3536 ft 137 kts 136°
2026-05-05 23:58 42.16293 -72.18432 3539 ft 136 kts 137°
2026-05-05 23:58 42.15823 -72.17310 3537 ft 138 kts 136°
2026-05-05 23:58 42.15341 -72.16191 3533 ft 137 kts 138°
2026-05-05 23:59 42.14849 -72.15097 3531 ft 137 kts 137°
2026-05-05 23:59 42.14357 -72.14014 3537 ft 135 kts 137°
2026-05-05 23:59 42.13869 -72.12942 3540 ft 134 kts 139°
2026-05-05 23:59 42.13377 -72.11855 3542 ft 137 kts 138°
2026-05-06 00:00 42.12884 -72.10752 3553 ft 136 kts 139°
2026-05-06 00:00 42.12393 -72.09665 3556 ft 136 kts 139°
2026-05-06 00:00 42.11906 -72.08572 3554 ft 135 kts 139°
2026-05-06 00:00 42.11419 -72.07481 3552 ft 136 kts 139°
2026-05-06 00:01 42.10931 -72.06385 3560 ft 137 kts 138°
2026-05-06 00:01 42.10439 -72.05293 3556 ft 136 kts 139°
2026-05-06 00:01 42.09955 -72.04221 3560 ft 135 kts 139°
2026-05-06 00:01 42.09466 -72.03136 3554 ft 135 kts 138°
2026-05-06 00:02 42.08977 -72.02057 3553 ft 135 kts 139°
2026-05-06 00:02 42.08490 -72.00971 3554 ft 136 kts 138°
2026-05-06 00:02 42.08002 -71.99880 3554 ft 136 kts 139°
2026-05-06 00:02 42.07510 -71.98788 3563 ft 136 kts 139°
2026-05-06 00:03 42.07015 -71.97687 3576 ft 138 kts 138°
2026-05-06 00:03 42.06501 -71.96609 3575 ft 135 kts 142°
2026-05-06 00:03 42.05965 -71.95571 3574 ft 135 kts 142°
2026-05-06 00:03 42.05437 -71.94546 3569 ft 135 kts 142°
2026-05-06 00:04 42.04900 -71.93523 3575 ft 133 kts 144°
2026-05-06 00:04 42.04330 -71.92552 3576 ft 130 kts 149°
2026-05-06 00:04 42.03734 -71.91647 3573 ft 128 kts 152°
2026-05-06 00:04 42.03141 -71.90777 3564 ft 124 kts 153°
2026-05-06 00:05 42.01989 -71.89119 3584 ft 118 kts 154°
2026-05-06 00:05 42.01424 -71.88304 3584 ft 119 kts 155°
2026-05-06 00:05 42.00848 -71.87490 3591 ft 121 kts 154°
2026-05-06 00:06 42.00268 -71.86663 3586 ft 122 kts 153°
2026-05-06 00:06 41.99693 -71.85844 3597 ft 121 kts 155°
2026-05-06 00:06 41.99134 -71.85037 3586 ft 114 kts 157°
2026-05-06 00:06 41.98550 -71.84397 3592 ft 109 kts 164°
2026-05-06 00:07 41.97974 -71.83762 3595 ft 105 kts 165°
2026-05-06 00:07 41.97414 -71.83149 3593 ft 102 kts 167°
2026-05-06 00:07 41.96838 -71.82577 3595 ft 103 kts 171°
2026-05-06 00:07 41.96232 -71.82078 3607 ft 103 kts 175°
2026-05-06 00:08 41.95608 -71.81580 3615 ft 105 kts 174°
2026-05-06 00:08 41.94970 -71.81087 3613 ft 106 kts 175°
2026-05-06 00:08 41.94322 -71.80593 3616 ft 107 kts 174°
2026-05-06 00:08 41.93670 -71.80092 3608 ft 107 kts 175°
2026-05-06 00:09 41.93021 -71.79601 3603 ft 107 kts 174°
2026-05-06 00:09 41.92379 -71.79108 3604 ft 106 kts 174°
2026-05-06 00:09 41.91734 -71.78613 3607 ft 107 kts 174°
2026-05-06 00:09 41.91093 -71.78138 3608 ft 107 kts 174°
2026-05-06 00:10 41.90499 -71.77358 3604 ft 126 kts 152°
2026-05-06 00:10 41.89922 -71.76489 3606 ft 125 kts 154°
2026-05-06 00:10 41.89345 -71.75616 3606 ft 125 kts 153°
2026-05-06 00:10 41.88776 -71.74750 3609 ft 122 kts 154°
2026-05-06 00:11 41.88203 -71.73906 3617 ft 122 kts 156°
2026-05-06 00:11 41.87611 -71.73090 3616 ft 122 kts 156°
2026-05-06 00:11 41.87025 -71.72279 3618 ft 121 kts 156°
2026-05-06 00:11 41.86435 -71.71493 3619 ft 119 kts 159°
2026-05-06 00:12 41.85837 -71.70726 3626 ft 117 kts 161°
2026-05-06 00:12 41.85222 -71.69983 3632 ft 120 kts 160°
2026-05-06 00:12 41.84587 -71.69233 3570 ft 125 kts 161°
2026-05-06 00:12 41.83931 -71.68471 3508 ft 126 kts 161°
2026-05-06 00:13 41.83285 -71.67701 3507 ft 123 kts 161°
2026-05-06 00:13 41.82646 -71.66934 3411 ft 122 kts 160°
2026-05-06 00:13 41.82022 -71.66192 3305 ft 118 kts 160°
2026-05-06 00:13 41.81425 -71.65463 3198 ft 114 kts 161°
2026-05-06 00:14 41.80852 -71.64741 3076 ft 115 kts 160°
2026-05-06 00:14 41.80260 -71.63975 2932 ft 122 kts 160°
2026-05-06 00:14 41.79640 -71.63174 2795 ft 124 kts 161°
2026-05-06 00:14 41.79020 -71.62364 2640 ft 124 kts 160°
2026-05-06 00:15 41.78415 -71.61563 2493 ft 122 kts 161°
2026-05-06 00:15 41.77805 -71.60765 2344 ft 122 kts 161°
2026-05-06 00:15 41.77218 -71.59977 2194 ft 120 kts 160°
2026-05-06 00:15 41.76637 -71.59182 2052 ft 120 kts 159°
2026-05-06 00:16 41.76111 -71.58350 2004 ft 113 kts 158°
2026-05-06 00:16 41.75620 -71.57537 1907 ft 112 kts 159°
2026-05-06 00:16 41.75138 -71.56723 1814 ft 111 kts 158°
2026-05-06 00:16 41.74649 -71.55917 1713 ft 114 kts 156°
2026-05-06 00:17 41.74158 -71.55088 1615 ft 114 kts 158°
2026-05-06 00:17 41.73611 -71.54276 1516 ft 119 kts 158°
2026-05-06 00:17 41.73064 -71.53455 1501 ft 115 kts 159°
2026-05-06 00:17 41.72512 -71.52689 1494 ft 117 kts 158°
2026-05-06 00:18 41.71979 -71.51881 1502 ft 115 kts 158°
2026-05-06 00:18 41.71467 -71.51083 1481 ft 109 kts 158°
2026-05-06 00:18 41.71012 -71.50313 1507 ft 102 kts 159°
2026-05-06 00:18 41.70558 -71.49580 1519 ft 104 kts 161°
2026-05-06 00:19 41.70052 -71.48860 1506 ft 109 kts 161°
2026-05-06 00:19 41.69487 -71.48177 1382 ft 104 kts 174°
2026-05-06 00:19 41.68855 -71.47721 1263 ft 105 kts 176°
2026-05-06 00:19 41.68182 -71.47281 1151 ft 110 kts 175°
2026-05-06 00:20 41.67480 -71.46866 988 ft 107 kts 177°
2026-05-06 00:20 41.66822 -71.46533 1016 ft 104 kts 173°
2026-05-06 00:20 41.66160 -71.46186 1010 ft 101 kts 176°
2026-05-06 00:20 41.65507 -71.45826 947 ft 102 kts 174°
2026-05-06 00:21 41.64895 -71.45449 946 ft 87 kts 176°
2026-05-06 00:21 41.64404 -71.44994 936 ft 84 kts 164°
2026-05-06 00:21 41.63937 -71.44605 889 ft 77 kts 177°
2026-05-06 00:21 41.63394 -71.44333 720 ft 87 kts 169°
2026-05-06 00:22 41.62874 -71.44003 580 ft 76 kts 169°
2026-05-06 00:22 41.62452 -71.43634 549 ft 67 kts 159°
2026-05-06 00:22 41.62048 -71.43235 374 ft 77 kts 162°
2026-05-06 00:22 41.61572 -71.42884 248 ft 81 kts 158°
2026-05-06 00:23 41.61110 -71.42448 156 ft 75 kts 171°
2026-05-06 00:23 41.60710 -71.42182 129 ft 77 kts 141°
2026-05-06 00:23 41.60344 -71.41754 24 ft 57 kts 164°